カタログに戻る

CENTAURI-1

運用中通信SSO
NORAD 43809·PAYLOAD·🇦🇺 Australia

打ち上げ Dec 3, 2018 から Vandenberg Space Force Base

Loading…

次のパス (今後24時間)

TLE

最新Source: Space-Track

元期: Sep 14, 2026, 14:20 UTC

1 43809U 18099BD  26257.59791061  .00003905  00000-0  19974-3 0  9991
2 43809  97.4128 307.4020 0014340  23.9141 336.2756 15.17135987426051

AllMySatでCENTAURI-1をリアルタイム追跡

Download on the App Store